SBAFSBSC

Guest
Details From SBAF - Campo Delio Jardim de Mattos
To SBSC - SANTA CRUZ
Flight Number -
Tags generated
Created
Modified
Stats Distance 21 nm / 38 km
Max Altitude 200 ft / 61 m
Waypoints 3
Social Downloads 0
Likes 0
Share VATSIM

Download

Looking for another format? Having issues loading an existing format? Contact us
Advertisement - Login to hide

Notes

Basic altitude profile: - Ascent Rate: 2500ft/min - Ascent Speed: 250kts - Cruise Altitude: 35000ft - Cruise Speed: 420kts - Descent Rate: 1500ft/min - Descent Speed: 250kts Options: - Use NATs: yes - Use PACOTS: yes - Use low airways: yes - Use high airways: yes

Route

SBAF SCR SBSC

ID Type Via Altitude Latitude Longitude Leg Dist Tot Dist Heading (true) Name
O SBAF APT - 0 ft / 0 m -22.87508˚ -43.38471˚ - 0 nm - Campo Delio Jardim de Mattos
SCR VOR - 200 ft / 61 m -22.94963˚ -43.72768˚ 19 nm 19 nm 257° / 257° -
O SBSC APT - 0 ft / 0 m -22.93249˚ -43.71909˚ 1 nm 20 nm 25° / 25° SANTA CRUZ

Altitude Profile

Advertisement - Login to hide

SBAF

Details ICAO SBAF
Name Campo Delio Jardim de Mattos
Region Brazil
Timezone America/Sao_Paulo (UTC-3.0)
Stats Elevation 110 ft / 34 m (AMSL)
Location -22.875083° -43.384709°
Runways 1
Magnetic Variation 22.753° W

METAR

SBAF 201700Z 31007KT CAVOK 25/13 Q1011

Decode

TAF

TAF TAF SBAF 200900Z 2012/2024 24012KT 9999 SCT030 TX24/2017Z TN19/2023Z BECMG 2014/2016 CAVOK BECMG 2018/2020 24005KT RMK PDW

Decode

Departure Runways

ID Width Length Bearing (true) Bearing (mag) Surface Threshold Offset Overrun Length
08 171 ft / 52 m 6,527 ft / 1,990 m 61.63° 84.38° Concrete 0 ft / 0 m 0 ft / 0 m
26 171 ft / 52 m 6,527 ft / 1,990 m 241.63° 264.38° Concrete 0 ft / 0 m 0 ft / 0 m

SBSC

Details ICAO SBSC (STU)
Name SANTA CRUZ
Region Brazil
Timezone America/Sao_Paulo (UTC-3.0)
Stats Elevation 10 ft / 3 m (AMSL)
Location -22.932489° -43.719090°
Runways 1
Magnetic Variation 22.630° W

METAR

SBSC 201700Z 23014KT CAVOK 23/14 Q1011

Decode

TAF

TAF SBSC 200900Z 2012/2024 25012KT 9999 SCT030 TX24/2017Z TN18/2023Z BECMG 2014/2016 CAVOK BECMG 2018/2020 25005KT RMK PDW

Decode

Destination Runways

ID Width Length Bearing (true) Bearing (mag) Surface Threshold Offset Overrun Length
05 148 ft / 45 m 9,039 ft / 2,755 m 24.13° 46.76° Asphalt 0 ft / 0 m 1,145 ft / 349 m
23 148 ft / 45 m 9,039 ft / 2,755 m 204.12° 226.75° Asphalt 0 ft / 0 m 1,145 ft / 349 m